Regional Weather Roundup
Issued by NWS

Home | Current Version | Previous Version | Text Only | Print | Product List | Glossary Off
Versions: 1 2 3 4 5 6 7 8 9 10 11 12 13 14 15 16 17 18 19 20 21 22 23 24 25 26 27 28 29 30 31 32 33 34 35 36 37 38 39 40 41 42 43 44 45 46 47 48 49 50

000
ASUS43 KOAX 080802
RWRNE

WEATHER ROUNDUP FOR NEBRASKA
NATIONAL WEATHER SERVICE OMAHA NE
200 AM CST MON FEB 08 2016

NOTES: SATELLITE DATA IS BEING USED TO AUGMENT CLOUD COVER ABOVE
       12000 FEET.
       "FAIR" INDICATES FEW OR NO CLOUDS BELOW 12,000 FEET WITH NO
       SIGNIFICANT WEATHER AND/OR OBSTRUCTIONS TO VISIBILITY.

  * THESE STATIONS DO NOT REPORT WEATHER SUCH AS RAIN...SNOW OR FOG.

NEZ001>004-019>022-054>056-080900-
NEBRASKA PANHANDLE

CITY           SKY/WX    TMP DP  RH WIND       PRES   REMARKS
SCOTTSBLUFF    CLOUDY    24  12  60 NW15      30.37F WCI  11
ALLIANCE       CLEAR     18   9  68 W20       30.29S WCI   2
CHADRON        CLEAR     25  12  58 W18       30.34S WCI  11
SIDNEY         CLOUDY    23  11  60 NW20      30.32F WCI   8
$$

NEZ057>060-069>072-079>082-080900-
SOUTHWEST NEBRASKA

CITY           SKY/WX    TMP DP  RH WIND       PRES   REMARKS
NORTH PLATTE   CLEAR     28  12  51 NW24G31   30.22F WCI  14
IMPERIAL       CLEAR     27  13  55 NW21G32   30.28F WCI  13
MCCOOK         CLEAR     25  14  63 NW18      30.25F WCI  11
$$

NEZ005>010-023>029-035>040-094-080900-
NORTH CENTRAL NEBRASKA

CITY           SKY/WX    TMP DP  RH WIND       PRES   REMARKS
VALENTINE      CLEAR     29  16  58 NW26G35   30.19F WCI  14
BROKEN BOW     CLEAR     30  16  56 NW28G39   30.15F WCI  15
ORD            PTCLDY    31  17  56 NW36G47   30.10S WCI  15
$$

NEZ041-046>049-061>064-073>077-083>087-080900-
SOUTH CENTRAL NEBRASKA

CITY           SKY/WX    TMP DP  RH WIND       PRES   REMARKS
GRAND ISLAND   CLOUDY    32  19  58 NW28G36   30.11F WCI  18
HASTINGS       CLOUDY    33  18  53 NW26G38   30.11F WCI  20
$$

NEZ011>018-030>034-042>045-080900-
NORTHEAST NEBRASKA

CITY           SKY/WX    TMP DP  RH WIND       PRES   REMARKS
NORFOLK        FLURRIES  31  24  75 N28G36    30.00R WCI  17
COLUMBUS *     CLOUDY    32  16  51 NW22G31   30.03F WCI  19
TEKAMAH        CLOUDY    29  21  72 NW29G41   29.98F WCI  14
$$

NEZ050>053-065>068-078-088>093-080900-
SOUTHEAST NEBRASKA

CITY           SKY/WX    TMP DP  RH WIND       PRES   REMARKS
LINCOLN        CLOUDY    34  19  54 NW20G28   30.04F WCI  23
OMAHA EPPLEY   CLOUDY    31  22  69 NW31G46   29.97F WCI  16
FALLS CITY     CLOUDY    34  23  64 NW18G31   30.01F WCI  23
$$

NEZ044-045-051>053-067-080900-
OMAHA AREA

CITY           SKY/WX    TMP DP  RH WIND       PRES   REMARKS
OMAHA EPPLEY   CLOUDY    31  22  69 NW31G46   29.97F WCI  16
OFFUTT AFB     MOCLDY    32  19  59 NW31G46   29.97F WCI  17
$$



USA.gov is the U.S. government's official web portal to all federal, state and local government web resources and services.